星链-1527 (STARLINK-1527 )

导读 | 豆包AI

STARLINK-1527是美国太空探索技术公司(SpaceX)星链卫星互联网项目的组网卫星,于2020年8月7日发射入轨,星链计划旨在构建全球卫星互联网星座,为全球提供高速互联网接入服务,该卫星是星链早期部署批次中的一员,参与了星座网络的初期搭建与服务测试工作。

基本信息
目录编号:
46048
目录名称:
STARLINK-1527
国际标识:
2020-055X
轨道中心:
EARTH
卫星名称:
星链-1527
卫星全名:
星链-1527 (STARLINK-1527 )
卫星状态:
在轨 (已飞行2066 天)
发射日期:
2020-08-07 UTC
国别 :
美国 (US)
星等 :
--
轨道信息
数据来源 国际轨道数据
星历时间: 2026-04-04T04:56:04+0800
6小时前
查看轨道信息
半长轴: 6853.338km
偏心率: 0.0001063
轨道倾角: 53.161°
近地点辐角 95.140°
升交点赤经 356.964°
平近点角 264.972°
近地点: 474.472km
远地点: 475.93km
周期: 94.105分钟
每日圈数: 15.302049
详细信息
固有亮度:
5
最大亮度:
2.5
卫星平台:
Starlink V1.0
覆盖范围:
全球
运营商:
太空探索技术公司
运营商所在国:
美国
制造商(研发单位):
太空探索技术公司
制造商所在国:
美国
使用方式:
暂无
卫星简介
星链(Starlink)计划是由太空探索技术公司(SpaceX)提出的一个巨型低轨卫星互联网星座项目,计划在2019年至2024年间在太空搭建由约1.2万颗卫星组成的“星链”网络,其中1584颗将部署在地球上空550千米处的近地轨道,并从2020年开始工作。该卫星仍在工作。
2D轨道图
3D轨道图
轨道高度分析图
轨道倾角分析图
轨道综合分析图
查看轨道综合分析图